GW0992 Weather Reports


time (UTC)temp
F
wind
direction
speed
knots
gust
knots
rain 1hr
in
rain 24hr
in
rain mn
in
humidity
%
barometer
mb
20260505230017 81 234 7.8 17.4 0.00 0.00 0.00 28 1005.7
20260505224510 82 277 10.4 17.4 0.00 0.00 0.00 28 1005.6
20260505223048 82 96 7.8 14.8 0.00 0.00 0.00 28 1005.4
20260505221526 82 225 8.7 22.6 0.00 0.00 0.00 28 1005.4
20260505220004 82 248 10.4 20.9 0.00 0.00 0.00 28 1005.2
20260505214606 83 290 9.6 19.1 0.00 0.00 0.00 28 1005.0
20260505213026 83 245 8.7 18.2 0.00 0.00 0.00 29 1004.9
20260505211516 83 153 10.4 20.9 0.00 0.00 0.00 28 1004.8
20260505210124 84 263 11.3 20.0 0.00 0.00 0.00 28 1004.8
20260505204558 84 227 5.2 14.8 0.00 0.00 0.00 29 1004.8
20260505203126 84 248 7.0 26.1 0.00 0.00 0.00 28 1005.0
20260505201528 84 248 6.1 16.5 0.00 0.00 0.00 29 1005.1
20260505200018 84 345 8.7 20.9 0.00 0.00 0.00 29 1005.0
20260505194558 82 284 9.6 19.1 0.00 0.00 0.00 31 1005.4
20260505193049 83 275 9.6 22.6 0.00 0.00 0.00 29 1005.2
20260505191543 83 302 9.6 18.2 0.00 0.00 0.00 32 1005.7
20260505190017 82 240 7.0 14.8 0.00 0.00 0.00 35 1006.0
20260505184551 82 245 9.6 18.2 0.00 0.00 0.00 34 1006.3
20260505183055 82 257 7.0 23.5 0.00 0.00 0.00 35 1006.4
20260505181532 81 163 9.6 15.6 0.00 0.00 0.00 36 1006.3
20260505180019 81 171 9.6 17.4 0.00 0.00 0.00 38 1006.5
20260505174506 80 202 7.0 13.0 0.00 0.00 0.00 39 1006.6
20260505173051 80 198 6.1 18.2 0.00 0.00 0.00 39 1006.9
20260505171531 80 217 6.1 13.9 0.00 0.00 0.00 39 1007.0
20260505170009 79 183 6.1 14.8 0.00 0.00 0.00 40 1007.1
20260505164624 79 232 7.0 13.0 0.00 0.00 0.00 40 1007.2
20260505163031 78 295 4.3 16.5 0.00 0.00 0.00 41 1007.5
20260505161521 77 175 7.8 15.6 0.00 0.00 0.00 42 1007.8
20260505153059 75 279 5.2 12.2 0.00 0.00 0.00 45 1008.5
20260505151531 74 184 5.2 9.6 0.00 0.00 0.00 45 1008.5
20260505130117 66 208 3.5 9.6 0.00 0.00 0.00 55 1008.7
20260505124535 65 257 3.5 11.3 0.00 0.00 0.00 57 1008.6
20260505123008 63 284 1.7 7.0 0.00 0.00 0.00 60 1008.8
20260505121548 62 295 2.6 6.1 0.00 0.00 0.00 63 1008.9
20260505120042 60 227 1.7 5.2 0.00 0.00 0.00 65 1009.0
20260505114523 60 119 0.9 6.1 0.00 0.00 0.00 66 1008.5
20260505113010 60 205 0.9 7.0 0.00 0.00 0.00 67 1008.7
20260505111601 60 246 0.9 3.5 0.00 0.00 0.00 65 1008.8
20260505110126 59 175 1.7 6.1 0.00 0.00 0.00 66 1009.1
20260505101535 57 217 0.0 4.3 0.00 0.00 0.00 69 1008.8
20260505100004 57 209 0.9 2.6 0.00 0.00 0.00 69 1008.3
20260505094547 57 269 1.7 3.5 0.00 0.00 0.00 68 1008.2
20260505093035 57 194 1.7 5.2 0.00 0.00 0.00 69 1008.0
20260505091519 56 249 0.9 3.5 0.00 0.00 0.00 70 1008.1
20260505090159 55 182 0.9 3.5 0.00 0.00 0.00 71 1008.0
20260505084555 54 213 0.0 2.6 0.00 0.00 0.00 73 1008.0
20260505083037 54 213 0.0 1.7 0.00 0.00 0.00 72 1008.1
20260505081545 55 213 0.0 0.0 0.00 0.00 0.00 69 1008.0
20260505080015 57 213 0.0 2.6 0.00 0.00 0.00 66 1008.1
20260505074626 57 215 0.0 2.6 0.00 0.00 0.00 65 1008.0
20260505073049 57 224 0.0 2.6 0.00 0.00 0.00 65 1008.1
20260505071528 58 236 0.0 2.6 0.00 0.00 0.00 64 1008.0
20260505070127 58 236 0.0 2.6 0.00 0.00 0.00 63 1008.0
20260505064543 59 236 0.0 1.7 0.00 0.00 0.00 61 1007.9
20260505063029 59 237 0.0 2.6 0.00 0.00 0.00 60 1008.0
20260505061523 59 215 0.9 3.5 0.00 0.00 0.00 60 1008.1
20260505060032 60 205 0.9 3.5 0.00 0.00 0.00 59 1008.2
20260505054503 60 233 1.7 4.3 0.00 0.00 0.00 58 1008.2
20260505053100 61 238 0.9 5.2 0.00 0.00 0.00 57 1008.3
20260505053002 61 236 0.0 5.2 0.00 0.00 0.00 57 1008.3
20260505051558 61 190 0.9 5.2 0.00 0.00 0.00 56 1008.4
20260505041628 62 212 2.6 7.0 0.00 0.00 0.00 52 1008.6
20260505040040 62 192 1.7 7.0 0.00 0.00 0.00 51 1008.6
20260505034518 62 207 1.7 7.8 0.00 0.00 0.00 50 1008.7
20260505033013 63 209 1.7 7.8 0.00 0.00 0.00 49 1008.6
20260505031551 63 200 2.6 7.8 0.00 0.00 0.00 48 1008.7
20260505030034 64 192 3.5 8.7 0.00 0.00 0.00 48 1008.7
20260505024514 64 174 3.5 7.0 0.00 0.00 0.00 48 1008.8
20260505023007 64 192 2.6 7.0 0.00 0.00 0.00 47 1008.8
20260505021555 65 199 2.6 7.0 0.00 0.00 0.00 47 1008.9
20260505020042 65 219 2.6 7.8 0.00 0.00 0.00 46 1008.8
20260505014521 65 191 2.6 13.0 0.00 0.00 0.00 47 1008.7
20260505013002 65 265 4.3 10.4 0.00 0.00 0.00 47 1008.6
20260505011550 65 198 1.7 7.8 0.00 0.00 0.00 47 1008.4
20260505010039 64 173 1.7 4.3 0.00 0.00 0.00 48 1008.2
20260505004528 64 173 0.9 3.5 0.00 0.00 0.00 50 1008.0
20260505003005 65 173 0.9 3.5 0.00 0.00 0.00 49 1007.7
20260505001502 65 174 1.7 5.2 0.00 0.00 0.00 48 1007.5
20260505000122 66 188 2.6 7.0 0.00 0.00 0.00 46 1007.2
20260504234537 70 183 1.7 10.4 0.00 0.00 0.00 38 1007.0
20260504233031 71 246 2.6 9.6 0.00 0.00 0.00 34 1006.8
20260504231513 71 263 4.3 11.3 0.00 0.00 0.00 34 1006.6